Location: Misciano
(43.5000°N, 11.9500°E)
Time: 09:35:47
(UTC+00:00)

Lacrosse 4 Rocket - Pass Details

Date: 13 August 2020
Orbit: 544 x 615 km, 68.0° (Epoch: 20 September)

Event Time Altitude Azimuth Distance (km) Brightness Sun altitude
Exits shadow 23:06:10 16° 312° (NW) 1,531 4.0 -32.2°
Maximum altitude 23:06:18 16° 315° (NW) 1,529 4.0 -32.2°
Drops below altitude 10° 23:08:56 10° 354° (N) 1,870 4.9 -32.2°
Sets 23:11:54 0° 16° (NNE) 2,756 5.9 -32.2°
